Location: Albany
(35.0170°S, 117.8920°E)
Time: 02:49:58
(UTC+08:00)

Vanguard 1 - Pass Details

Date: 29 January 2021
Orbit: 649 x 3833 km, 34.2° (Epoch: 25 February)

Event Time Altitude Azimuth Distance (km) Brightness Sun altitude
Rises 05:44:17 0° 266° (W) 2,972 12.0 2.9°
Reaches altitude 10° 05:46:44 10° 279° (W) 2,083 11.1 3.4°
Maximum altitude 05:50:35 27° 338° (NNW) 1,414 10.6 4.1°
Drops below altitude 10° 05:55:23 10° 34° (NE) 2,649 12.5 5.1°
Sets 05:58:58 0° 45° (NE) 3,989 13.6 5.8°
